When you browse on this site, cookies collect data to enhance your experience and personalize the content and advertising you see.
Visit our Privacy Policy to learn more. By continuing to use the site, you agree to this use of cookies and data.
  • In Portugal
  • List of Countries
  • For 7 days
  • Water Temperature
  • Satellite Maps
  • Weather Map
  • Weather Widgets
  • user-avatar
    Login

    Hourly Weather Nadżaf

    Today, 26 March, Tuesday

    Time Temperature Precipitation Wind Pressure Humidity
    00:00 +22°C° 0 mm 3 mps 744 mmHg 29%
    01:00 +20°C° 0.1 mm 4 mps 744 mmHg 35%
    02:00 +19°C° 0.1 mm 6 mps 744 mmHg 42%
    03:00 +16°C° 0 mm 6 mps 745 mmHg 47%
    04:00 +16°C° 0 mm 6 mps 745 mmHg 46%
    05:00 +16°C° 0 mm 6 mps 745 mmHg 46%
    06:00 +15°C° 0 mm 6 mps 746 mmHg 46%
    07:00 +16°C° 0 mm 6 mps 746 mmHg 42%
    08:00 +17°C° 0 mm 6 mps 747 mmHg 38%
    09:00 +19°C° 0 mm 6 mps 747 mmHg 34%
    10:00 +20°C° 0 mm 7 mps 747 mmHg 31%
    11:00 +21°C° 0 mm 7 mps 747 mmHg 27%
    12:00 +23°C° 0 mm 7 mps 747 mmHg 23%
    13:00 +23°C° 0 mm 6 mps 747 mmHg 23%
    14:00 +23°C° 0 mm 6 mps 747 mmHg 23%
    15:00 +23°C° 0 mm 6 mps 747 mmHg 23%
    16:00 +23°C° 0 mm 6 mps 748 mmHg 26%
    17:00 +22°C° 0 mm 6 mps 748 mmHg 30%
    18:00 +21°C° 0 mm 6 mps 748 mmHg 33%
    19:00 +21°C° 0 mm 5 mps 749 mmHg 35%
    20:00 +20°C° 0 mm 4 mps 750 mmHg 37%
    21:00 +20°C° 0 mm 3 mps 751 mmHg 39%
    22:00 +19°C° 0 mm 2 mps 751 mmHg 41%
    23:00 +19°C° 0 mm 2 mps 751 mmHg 42%

    Tomorrow, 27 March, Wednesday

    Time Temperature Precipitation Wind Pressure Humidity
    00:00 +18°C° 0 mm 2 mps 751 mmHg 43%
    01:00 +18°C° 0 mm 2 mps 751 mmHg 44%
    02:00 +18°C° 0 mm 2 mps 751 mmHg 45%
    03:00 +17°C° 0 mm 2 mps 751 mmHg 46%
    04:00 +17°C° 0 mm 2 mps 751 mmHg 47%
    05:00 +16°C° 0 mm 3 mps 752 mmHg 49%
    06:00 +16°C° 0 mm 3 mps 752 mmHg 50%
    07:00 +17°C° 0 mm 3 mps 752 mmHg 46%
    08:00 +19°C° 0 mm 4 mps 753 mmHg 43%
    09:00 +20°C° 0 mm 4 mps 753 mmHg 39%
    10:00 +21°C° 0 mm 4 mps 753 mmHg 34%
    11:00 +23°C° 0 mm 4 mps 753 mmHg 29%
    12:00 +25°C° 0 mm 4 mps 753 mmHg 25%
    13:00 +26°C° 0 mm 4 mps 752 mmHg 23%
    14:00 +26°C° 0 mm 4 mps 752 mmHg 21%
    15:00 +27°C° 0 mm 4 mps 751 mmHg 19%
    16:00 +27°C° 0 mm 3 mps 751 mmHg 19%
    17:00 +27°C° 0 mm 2 mps 751 mmHg 19%
    18:00 +26°C° 0 mm 1 mps 751 mmHg 19%
    19:00 +26°C° 0.1 mm 1 mps 751 mmHg 21%
    20:00 +25°C° 0.1 mm 2 mps 751 mmHg 24%
    21:00 +24°C° 0.1 mm 3 mps 752 mmHg 26%
    22:00 +22°C° 0 mm 3 mps 752 mmHg 29%
    23:00 +22°C° 0 mm 3 mps 752 mmHg 31%

    Day after tomorrow, 28 March, Thursday

    Time Temperature Precipitation Wind Pressure Humidity
    00:00 +21°C° 0 mm 2 mps 752 mmHg 33%
    01:00 +20°C° 0 mm 2 mps 752 mmHg 34%
    02:00 +20°C° 0 mm 2 mps 752 mmHg 34%
    03:00 +19°C° 0 mm 2 mps 752 mmHg 34%
    04:00 +19°C° 0 mm 2 mps 752 mmHg 35%
    05:00 +18°C° 0 mm 3 mps 752 mmHg 37%
    06:00 +18°C° 0 mm 3 mps 752 mmHg 38%
    07:00 +19°C° 0 mm 3 mps 753 mmHg 35%
    08:00 +20°C° 0 mm 4 mps 754 mmHg 31%
    09:00 +22°C° 0 mm 4 mps 754 mmHg 28%
    10:00 +22°C° 0 mm 4 mps 754 mmHg 27%
    11:00 +23°C° 0 mm 4 mps 754 mmHg 26%
    12:00 +25°C° 0 mm 4 mps 754 mmHg 24%
    13:00 +25°C° 0 mm 4 mps 753 mmHg 23%
    14:00 +26°C° 0 mm 5 mps 753 mmHg 21%
    15:00 +26°C° 0 mm 5 mps 752 mmHg 20%
    16:00 +26°C° 0 mm 4 mps 752 mmHg 20%
    17:00 +26°C° 0 mm 4 mps 752 mmHg 21%
    18:00 +25°C° 0 mm 3 mps 752 mmHg 21%
    19:00 +25°C° 0 mm 2 mps 752 mmHg 22%
    20:00 +24°C° 0 mm 2 mps 753 mmHg 24%
    21:00 +24°C° 0 mm 1 mps 753 mmHg 25%
    22:00 +23°C° 0 mm 2 mps 753 mmHg 27%
    23:00 +21°C° 0 mm 2 mps 753 mmHg 29%

    29 March, Friday

    Time Temperature Precipitation Wind Pressure Humidity
    00:00 +21°C° 0 mm 3 mps 753 mmHg 30%
    01:00 +20°C° 0 mm 3 mps 753 mmHg 32%
    02:00 +20°C° 0 mm 3 mps 753 mmHg 33%
    03:00 +20°C° 0 mm 3 mps 752 mmHg 35%
    04:00 +19°C° 0 mm 3 mps 752 mmHg 36%
    05:00 +19°C° 0 mm 3 mps 752 mmHg 37%
    06:00 +19°C° 0 mm 3 mps 752 mmHg 39%
    07:00 +20°C° 0 mm 3 mps 753 mmHg 35%
    08:00 +21°C° 0 mm 4 mps 753 mmHg 31%
    09:00 +23°C° 0 mm 5 mps 753 mmHg 27%
    10:00 +25°C° 0 mm 5 mps 753 mmHg 23%
    11:00 +26°C° 0 mm 5 mps 752 mmHg 19%
    12:00 +28°C° 0 mm 5 mps 752 mmHg 15%
    13:00 +28°C° 0 mm 4 mps 751 mmHg 14%
    14:00 +29°C° 0 mm 4 mps 750 mmHg 13%
    15:00 +29°C° 0 mm 3 mps 750 mmHg 12%
    16:00 +29°C° 0 mm 3 mps 749 mmHg 13%
    17:00 +28°C° 0 mm 3 mps 749 mmHg 13%
    18:00 +28°C° 0 mm 2 mps 749 mmHg 14%
    19:00 +27°C° 0 mm 3 mps 749 mmHg 15%
    20:00 +27°C° 0 mm 4 mps 749 mmHg 16%
    21:00 +26°C° 0 mm 5 mps 749 mmHg 17%
    22:00 +26°C° 0 mm 5 mps 749 mmHg 18%
    23:00 +25°C° 0 mm 5 mps 748 mmHg 19%

    30 March, Saturday

    Time Temperature Precipitation Wind Pressure Humidity
    00:00 +25°C° 0 mm 5 mps 748 mmHg 21%
    01:00 +24°C° 0 mm 6 mps 748 mmHg 21%
    02:00 +23°C° 0 mm 7 mps 747 mmHg 22%
    03:00 +23°C° 0 mm 8 mps 747 mmHg 23%
    04:00 +23°C° 0 mm 8 mps 747 mmHg 24%
    05:00 +22°C° 0 mm 8 mps 747 mmHg 26%
    06:00 +21°C° 0 mm 8 mps 747 mmHg 28%
    07:00 +22°C° 0 mm 9 mps 747 mmHg 26%
    08:00 +23°C° 0 mm 11 mps 747 mmHg 25%
    09:00 +24°C° 0 mm 12 mps 748 mmHg 24%
    10:00 +27°C° 0 mm 12 mps 747 mmHg 23%
    11:00 +28°C° 0 mm 11 mps 747 mmHg 22%
    12:00 +29°C° 0 mm 11 mps 746 mmHg 21%
    13:00 +31°C° 0 mm 11 mps 745 mmHg 21%
    14:00 +32°C° 0 mm 11 mps 744 mmHg 20%
    15:00 +33°C° 0 mm 11 mps 743 mmHg 19%
    16:00 +33°C° 0 mm 10 mps 743 mmHg 20%
    17:00 +33°C° 0 mm 9 mps 743 mmHg 21%
    18:00 +33°C° 0 mm 9 mps 742 mmHg 21%
    19:00 +32°C° 0 mm 9 mps 743 mmHg 24%
    20:00 +31°C° 0 mm 10 mps 743 mmHg 28%
    21:00 +29°C° 0 mm 11 mps 743 mmHg 31%
    22:00 +28°C° 0 mm 10 mps 743 mmHg 33%
    23:00 +28°C° 0 mm 9 mps 743 mmHg 35%

    31 March, Sunday

    Time Temperature Precipitation Wind Pressure Humidity
    00:00 +27°C° 0 mm 9 mps 743 mmHg 37%
    01:00 +27°C° 0.1 mm 7 mps 742 mmHg 41%
    02:00 +26°C° 0.1 mm 5 mps 742 mmHg 46%
    03:00 +25°C° 0.1 mm 4 mps 742 mmHg 50%
    04:00 +25°C° 0.3 mm 4 mps 742 mmHg 51%
    05:00 +25°C° 0.3 mm 5 mps 742 mmHg 51%
    06:00 +23°C° 0.3 mm 5 mps 742 mmHg 52%
    07:00 +26°C° 0 mm 5 mps 743 mmHg 46%
    08:00 +27°C° 0 mm 5 mps 743 mmHg 41%
    09:00 +28°C° 0 mm 5 mps 743 mmHg 35%
    10:00 +29°C° 0.1 mm 7 mps 743 mmHg 29%
    11:00 +32°C° 0.1 mm 8 mps 743 mmHg 22%
    12:00 +33°C° 0.1 mm 9 mps 743 mmHg 16%
    13:00 +33°C° 0.1 mm 9 mps 742 mmHg 15%
    14:00 +33°C° 0.1 mm 9 mps 742 mmHg 15%
    15:00 +33°C° 0.1 mm 9 mps 742 mmHg 14%
    16:00 +32°C° 0 mm 8 mps 742 mmHg 14%
    17:00 +30°C° 0 mm 6 mps 742 mmHg 14%
    18:00 +29°C° 0 mm 4 mps 743 mmHg 15%
    19:00 +28°C° 0 mm 3 mps 743 mmHg 16%
    20:00 +28°C° 0 mm 2 mps 743 mmHg 17%
    21:00 +27°C° 0 mm 1 mps 743 mmHg 19%
    22:00 +26°C° 0.1 mm 3 mps 743 mmHg 22%
    23:00 +26°C° 0.1 mm 4 mps 742 mmHg 25%
    Show more